{"data":{"norad_id":60589,"intl_designator":"2024-150G","name":"STARLINK-32169","alt_names":[],"object_type":"PAYLOAD","status":"ACTIVE","operator":null,"country":"US","launch_date":"2024-08-20","launch_site_code":"AFETR","launch_vehicle":null,"mission":null,"orbit_class":"UNKNOWN","rcs_meters":null,"size_class":null,"mass_kg":null,"dimensions":null,"purposes":["comms"],"wikipedia_slug":null,"has_3d_model":false,"image_url":null,"decayed_at":null,"tle_current":{"epoch":"2026-05-25T03:44:45.662784Z","epoch_age_seconds":61889,"freshness":"FRESH","line1":"1 60589U 24150G   26145.15608406  .00000632  00000+0  33448-4 0  9994","line2":"2 60589  53.1603 312.2105 0001096  90.9604 269.1522 15.30194806 99749","mean_motion":15.30194806,"eccentricity":0.0001096,"inclination_deg":53.1603,"raan_deg":312.2105,"arg_perigee_deg":90.9604,"mean_anomaly_deg":269.1522,"bstar":3.3448e-5,"rev_number":9974,"period_min":94.105665131894,"perigee_km":474.47944872444,"apogee_km":475.9817068975,"semimajor_km":6853.367577811,"source":"CELESTRAK","updated_at":"2026-05-25T13:38:19.279318Z"}}}